User: anonymous   Login
Location: Newark
(52.2090°N, 4.1550°W)
Time: 04:03:15
(UTC+00:00)
Language:

Tiros 1 - Orbit

View from above orbital plane
View from above orbital plane
View from above satellite
View from above satellite

Ground track
Ground track

The orbit data is extracted from the following two-line orbital elements,

1    29U 60002B   19261.20812812 -.00000125  00000-0  12378-4 0  9996
2    29  48.3793 158.1108 0023657 144.3396 215.9102 14.74317821178345
Epoch (UTC): 18 September 2019 04:59:42
Eccentricity: 0.0023657
inclination: 48.3793°
perigee height: 631 km
apogee height: 664 km
right ascension of ascending node: 158.1108°
argument of perigee: 144.3396°
revolutions per day: 14.74317821
mean anomaly at epoch: 215.9102°
orbit number at epoch: 17834

The dashed part of the orbit path shows where the satellite is in the earth's shadow,  

DLR